Location: Buchdorf
(48.7842°N, 10.8275°E)
Time: 18:07:01
(UTC+00:00)

STARLINK-1143 - Pass Details

Date: 09 April 2020
Orbit: 549 x 550 km, 53.0° (Epoch: 26 May)

Event Time Altitude Azimuth Distance (km) Brightness Sun altitude
Rises 19:50:12 0° 295° (WNW) 2,734 8.8 -17.3°
Reaches altitude 10° 19:52:27 10° 293° (WNW) 1,838 7.5 -17.6°
Maximum altitude 19:56:37 73° 210° (SSW) 582 3.6 -18.2°
Enters shadow 19:57:50 44° 137° (SE) 772 3.9 -18.3°
